Home > Weather > Norderstedt > Past weeks

Flag for Germany Past Weather in Norderstedt, Schleswig-Holstein, Germany — Yesterday and Last 2 Weeks

Now
68 °F

Clear.


Feels Like: 68 °F
Forecast: 66 / 86 °F
Wind: 10 mph from Southeast

Location: Hamburg-Fuhlsbuettel

Current Time: Aug 25, 2016 at 5:05:22 AM

Latest Report: Aug 25, 2016 at 4:20 AM


Visibility: 10 mi

Pressure: 30.12 "Hg

Humidity: 73%

Dew Point: 59 °F

Location of NorderstedtLocation

Past Weather in Norderstedt — Graph

°F

Norderstedt Temperature Yesterday

Maximum temperature yesterday: 84 °F (at 5:20 PM)
Minimum temperature yesterday: 57 °F (at 4:20 AM)
Average temperature yesterday: 71 °F

High & Low Weather Summary for the Past Weeks

 TemperatureHumidityPressure
High84 °F (Aug 24, 5:20 PM)100% (Aug 11, 5:20 PM)30.30 "Hg (Aug 11, 5:20 PM)
Low43 °F (Aug 17, 5:50 AM)44% (Aug 17, 5:20 PM)29.80 "Hg (Aug 20, 12:20 AM)
Average61 °F82%30.07 "Hg
* Reported Aug 10 3:20 AM — Aug 25 3:50 AM, Norderstedt, Weather by CustomWeather, © 2016

Note: Actual official high and low records may vary slightly from our data, if they occured in-between our weather recording intervals... More about our weather records

Advertising

Norderstedt Weather History for the Previous 24 Hours

Scroll right to see more
 ConditionsComfort  
Time TempWeatherWind HumidityBarometerVisibility
3:50 AM
Thu, Aug 25
70 °FClear.10 mph69%30.15 "Hg10 mi
3:20 AM70 °FClear.10 mph69%30.15 "Hg10 mi
2:50 AM70 °FClear.8 mph69%30.15 "Hg10 mi
2:20 AM70 °FClear.7 mph69%30.15 "Hg10 mi
1:50 AM70 °FClear.6 mph69%30.15 "Hg10 mi
1:20 AM70 °FClear.6 mph69%30.15 "Hg10 mi
12:50 AM72 °FClear.8 mph65%30.15 "Hg10 mi
12:20 AM72 °FClear.8 mph69%30.15 "Hg10 mi
11:50 PM
Wed, Aug 24
72 °FClear.8 mph69%30.15 "Hg10 mi
11:20 PM73 °FClear.9 mph65%30.15 "Hg10 mi
10:50 PM73 °FClear.8 mph65%30.15 "Hg10 mi
10:20 PM75 °FClear.8 mph65%30.18 "Hg10 mi
9:50 PM75 °FPassing clouds.8 mph65%30.18 "HgN/A
9:20 PM77 °FSunny.9 mph61%30.18 "Hg10 mi
8:50 PM79 °FSunny.9 mph58%30.15 "Hg10 mi
8:20 PM81 °FSunny.8 mph58%30.15 "Hg10 mi
7:50 PM81 °FSunny.7 mph54%30.15 "Hg10 mi
7:20 PM82 °FPassing clouds.8 mph51%30.15 "HgN/A
6:50 PM82 °FSunny.12 mph51%30.15 "Hg10 mi
6:20 PM84 °FPassing clouds.8 mph48%30.18 "HgN/A
5:50 PM84 °FPassing clouds.8 mph51%30.18 "HgN/A
5:20 PM84 °FPassing clouds.9 mph51%30.18 "HgN/A
4:50 PM82 °FPassing clouds.8 mph51%30.18 "HgN/A
4:20 PM82 °FPassing clouds.8 mph55%30.18 "HgN/A
3:50 PM82 °FPassing clouds.8 mph55%30.21 "HgN/A
3:20 PM82 °FPassing clouds.8 mph55%30.21 "HgN/A
2:50 PM82 °FPassing clouds.9 mph55%30.21 "HgN/A
2:20 PM81 °FPassing clouds.8 mph58%30.21 "HgN/A
1:50 PM81 °FPassing clouds.9 mph58%30.21 "HgN/A
1:20 PM79 °FPassing clouds.10 mph61%30.24 "HgN/A
12:50 PM79 °FPassing clouds.9 mph61%30.24 "HgN/A
12:20 PM77 °FPassing clouds.12 mph61%30.24 "HgN/A
11:50 AM75 °FPassing clouds.9 mph65%30.24 "HgN/A
11:20 AM75 °FPassing clouds.9 mph65%30.27 "HgN/A
10:50 AM73 °FPassing clouds.9 mph69%30.27 "HgN/A
10:20 AM72 °FPassing clouds.9 mph73%30.27 "HgN/A
9:50 AM70 °FPassing clouds.7 mph78%30.27 "HgN/A
9:20 AM68 °FPassing clouds.9 mph83%30.27 "HgN/A
8:50 AM66 °FPassing clouds.6 mph83%30.27 "HgN/A
8:20 AM64 °FPassing clouds.5 mph88%30.27 "HgN/A
7:50 AM63 °FPassing clouds.5 mph88%30.27 "HgN/A
7:20 AM61 °FPassing clouds.3 mph94%30.30 "HgN/A
6:50 AM59 °FCool.5 mph100%30.27 "Hg4 mi
6:20 AM59 °FCool.2 mph100%30.27 "Hg4 mi
5:50 AM59 °FCool.2 mph100%30.27 "Hg5 mi
5:20 AM59 °FCool.2 mph100%30.27 "HgN/A
Weather by CustomWeather, © 2016

See weather overviewHow to use our weather pages